Regional Weather Roundup
Issued by NWS State College, PA

Home | Current Version | Previous Version | Text Only | Print | Product List | Glossary On
Versions: 1 2 3 4 5 6 7 8 9 10 11 12 13 14 15 16 17 18 19 20 21 22 23 24 25 26 27 28 29 30 31 32 33 34 35 36 37 38 39 40 41 42 43 44 45 46 47 48 49 50
000
ASUS41 KCTP 281603
RWRCTP

REGIONAL WEATHER ROUNDUP
NATIONAL WEATHER SERVICE STATE COLLEGE PA
1200 PM EDT THU AUG 28 2014

Note: "fair" indicates few or no clouds below 12,000 feet with no
significant weather and/or obstructions to visibility.

* = STATION THAT DOES NOT REPORT PRECIPITATION /E.G. RAIN...SNOW...ETC/
    THUNDER OR FOG.

PAZ002>004-007>009-013>016-020>023-029>032-281700-
WESTERN PENNSYLVANIA

CITY           SKY/WX    TMP DP  RH WIND       PRES   REMARKS
ERIE           MOSUNNY   67  53  61 N7        30.14S
MEADVILLE      PTSUNNY   63  49  60 NW8       30.15S
FRANKLIN*      PTSUNNY   64  48  55 NW7       30.15F
NEW CASTLE     PTSUNNY   67  53  60 NW13      30.15F
BEAVER COUNTY  CLOUDY    66  54  63 NW7       30.15S
BUTLER*        MOSUNNY   66  52  59 N8        30.16S
PITTSBURGH INT MOSUNNY   67  52  58 N10       30.14S
PITTSBURGH     MOSUNNY   69  52  54 N8        30.12F
INDIANA*       MOSUNNY   66  50  55 N9G17     30.16S
LATROBE        PTSUNNY   66  55  68 N12       30.13F
WASHINGTON CO* CLOUDY    66  55  68 NW8       30.15S
$$

PAZ004>006-010>012-017>019-024>028-033>037-041-042-045-046-049>053-281700-
CENTRAL PENNSYLVANIA

CITY           SKY/WX    TMP DP  RH WIND       PRES   REMARKS
BRADFORD       PTSUNNY   64  49  57 N8        30.11F
DUBOIS         MOSUNNY   63  50  62 NW8       30.11F
CLEARFIELD     PTSUNNY   67  50  54 N8G16     30.11S
JOHNSTOWN      SUNNY     64  51  62 NW13G21   30.12S
ALTOONA        SUNNY     69  52  54 N14G21    30.09F
STATE COLLEGE  MOSUNNY   68  50  52 N13       30.08S
WILLIAMSPORT   PTSUNNY   72  49  44 NW10      30.03F
SELINSGROVE    MOSUNNY   73  57  57 N10G18    30.03F
FT INDIANTOWN  MOSUNNY   72  55  55 VRB3G17   30.01F
CAPITAL CITY   MOSUNNY   74  55  51 NW15      30.01F
HARRISBURG     PTSUNNY   74  56  53 N8        30.00F
YORK           MOSUNNY   75  59  57 N14       30.01F
$$

PAZ038>040-043-044-047-048-054-055-060>062-067>071-281700-
EASTERN PENNSYLVANIA

CITY           SKY/WX    TMP DP  RH WIND       PRES   REMARKS
SCRANTON       CLOUDY    67  51  56 NW14G21   30.02F
MOUNT POCONO   CLOUDY    63  49  60 NW14G22   30.02F
ALLENTOWN      SUNNY     73  52  47 N14G21    29.98S
QUAKERTOWN*    SUNNY     73  54  49 MISG      29.98F
READING        MOSUNNY   74  55  51 NW14      29.98F
LANCASTER      MOSUNNY   74  56  53 N12G21    30.00F
COATESVILLE    MOSUNNY   72  61  68 NW13      30.00S
POTTSTOWN      SUNNY     73  54  51 NW12G20   29.98F
BLUE BELL      SUNNY     75  55  50 NW7       29.95F
DOYLESTOWN     SUNNY     75  53  46 NW14G21   29.95F
WILLOW GROVE   NOT AVBL
NORTH PHILA    SUNNY     78  52  40 N13       29.96S
PHILADELPHIA   MOSUNNY   77  54  44 NW17      29.95F
$$



USA.gov is the U.S. government's official web portal to all federal, state and local government web resources and services.